Regional Weather Roundup
Issued by NWS

Home | Current Version | Previous Version | Text Only | Print | Product List | Glossary On
Versions: 1 2 3 4 5 6 7 8 9 10 11 12 13 14 15 16 17 18 19 20 21 22 23 24 25 26 27 28
000
ASUS45 KTFX 290410
RWRMT
MONTANA REGIONAL WEATHER ROUNDUP
NATIONAL WEATHER SERVICE GREAT FALLS MT
1000 PM MDT THU JUL 28 2016

NOTE: "FAIR" INDICATES FEW OR NO CLOUDS BELOW 12000 FEET WITH NO
SIGNIFICANT WEATHER AND/OR OBSTRUCTIONS TO VISIBILITY.

MTZ001>007-043-290500-
WEST OF THE DIVIDE

CITY           SKY/WX    TMP DP  RH WIND       PRES   REMARKS
KALISPELL      CLEAR     69  57  65 N7        30.03R
MISSOULA       CLEAR     77  47  34 NW8       30.04R
BUTTE          CLEAR     74  37  26 CALM      30.19R
MULLAN PASS    CLEAR     65  41  41 NW5       30.26R
DEER LODGE       N/A     66  45  45 W5        30.17R
EUREKA           N/A     73  52  46 CALM      30.02R
HAMILTON         N/A     70  55  60 CALM      30.07R
LIBBY            N/A     75  52  43 S3        30.02R
PLAINS           N/A     79  51  37 NE1       30.02R
RONAN            N/A     67  56  67 N2        30.09R
$$

MTZ008-052>055-290500-
SOUTHWEST MONTANA

CITY           SKY/WX    TMP DP  RH WIND       PRES   REMARKS
BOZEMAN        CLEAR     71  52  50 SE14      30.11R
DILLON         CLEAR     69  45  41 E8        30.13R
W YELLOWSTONE  CLEAR     59  32  36 CALM      30.26R
ENNIS          CLEAR     68  39  34 N13       30.19R
THREE FORKS      N/A     74  23  15 CALM      30.10R
TWIN BRIDGES     N/A     75  42  30 N9        30.10R
$$

MTZ009-010-012-014-046-048-049-054-290500-
EAST SLOPES AND CENTRAL MONTANA

CITY           SKY/WX    TMP DP  RH WIND       PRES   REMARKS
CUT BANK       MOCLDY    65  56  72 NE8       30.12R
GREAT FALLS    CLEAR     72  46  39 E8        30.08R
MALMSTROM AFB  CLEAR     66  49  54 SE9       30.08F
HELENA         CLEAR     77  51  40 W6        30.07R
CHOTEAU          N/A     70  46  43 SE7       30.12R
CONRAD           N/A     66  62  87 NW8       30.14R
$$

MTZ011-013-016-021-045-047-050-051-290500-
NORTH CENTRAL MONTANA

CITY           SKY/WX    TMP DP  RH WIND       PRES   REMARKS
HAVRE          CLEAR     70  56  61 E13       30.07R
N BAR RANCH      N/A     64  50  59 SW5       30.21R
CHINOOK          N/A     70  57  64 E8        30.08S
$$

MTZ017>020-022>027-061-062-290500-
NORTHEAST MONTANA

CITY           SKY/WX    TMP DP  RH WIND       PRES   REMARKS
GLASGOW        CLEAR     66  57  72 E6        30.10S
JORDAN           N/A     66  58  75 NE8       30.12R
SIDNEY         CLEAR     63  55  75 CALM      30.13R
WOLF POINT     CLEAR     65  56  72 NE5       30.11S
PLENTYWOOD       N/A     64  52  63 E5        30.13F
SCOBEY           N/A     59  44  57 NE5       30.11F
$$

MTZ028>42-056>058-290500-
SOUTHCENTRAL AND SOUTHEAST MONTANA

CITY           SKY/WX    TMP DP  RH WIND       PRES   REMARKS
BAKER          CLEAR     62  60  93 E8        30.16R
BILLINGS       CLEAR     72  50  45 E5        30.14R
LIVINGSTON     CLEAR     68  51  54 E9        30.15S
MILES CITY     CLEAR     71  55  56 NE8       30.11R
EKALAKA          N/A     61  57  86 SE5       30.14R
FORSYTH          N/A     70  54  56 CALM      30.11R
LAUREL           N/A     69  51  52 NE1       30.12R
ROUNDUP          N/A     68  50  52 CALM      30.05R
$$

REGIONAL REPORTS...DAKOTAS

CITY           SKY/WX    TMP DP  RH WIND       PRES   REMARKS
WILLISTON      CLOUDY    64  53  67 CALM      30.13S
MINOT          PTCLDY    63  55  75 CALM      30.13R
DICKINSON      CLOUDY    60  57  89 NE3       30.14R
BEACH            N/A     57  57 100 SE6       30.19R
CROSBY           N/A     59  55  88 S6        30.16S
WATFORD CITY     N/A    N/A N/A N/A MISG        N/A
BISMARCK       CLOUDY    69  55  60 N9        30.12R
GRAND FORKS    CLEAR     58  55  90 NW6       30.10R
FARGO          CLEAR     64  59  83 N7        30.08S
BUFFALO SD       N/A     63  61  93 E5        30.10R
RAPID CITY     MOCLDY    61  56  83 E7        30.16R
$$

REGIONAL REPORTS...WYOMING/IDAHO/WASHINGTON

CITY           SKY/WX    TMP DP  RH WIND       PRES   REMARKS
GILLETTE       CLEAR     58  56  93 S5        30.19R
SHERIDAN       CLEAR     64  53  67 S5        30.18R
BUFFALO WY     CLOUDY    64  53  67 W3        30.25R
CODY           CLEAR     68  46  45 CALM      30.23R
YELLOWSTONE LA   N/A     55  38  52 NW3       30.37R
IDAHO FALLS    CLEAR     82  41  23 SE8       30.06R
SALMON         CLEAR     75  43  31 CALM      30.03R
BOISE          CLEAR     87  39  18 NE5       29.93R
SPOKANE        PTCLDY    88  46  23 NE3       29.99S
$$

REGIONAL REPORTS...ALBERTA

CITY           SKY/WX    TMP DP  RH WIND       PRES   REMARKS
EDMONTON       PTCLDY    59  55  88 CALM      30.05F
CALGARY        MOCLDY    61  55  82 W5        30.15F
LETHBRIDGE     TSTM      66  61  82 VRB14     30.12R
MEDICINE HAT   MOCLDY    66  61  82 E7        30.06R
WATERTON GATE    N/A     59  54  82 CALM        N/A
MILK RIVER       N/A     63  59  88 SE6         N/A
$$

REGIONAL REPORTS...SASKATCHEWAN

CITY           SKY/WX    TMP DP  RH WIND       PRES   REMARKS
SWIFT CURRENT  CLEAR     61  55  82 SE9       30.08F
REGINA         PTCLDY    63  52  67 SE5       30.10R
SASKATOON      MOCLDY    66  61  82 NW3       30.07R
CYPRESS HILLS    N/A     61  50  67 SE6         N/A
VAL MARIE        N/A     61  55  82 SW5         N/A
ROCKGLEN         N/A     64  50  59 SE7         N/A
ASSINIBOIA       N/A     61  59  94 NE7         N/A
$$




USA.gov is the U.S. government's official web portal to all federal, state and local government web resources and services.